[[{"header":{"parameterUnit":"m.s-1","parameterCategory":1,"la1":30.2991,"la2":30.254,"lo1":-89.0895,"lo2":-89.0444,"dy":0.0017,"dx":0.0017,"nx":28,"ny":28,"refTime":"2024-07-08T09:00:00:Z","depth":0,"parameterNumber":2,"parameterNumberName":"U-component_of_WINDS"},"data":[0,0,0,0,0,0,0,0,0,0,0,0,0,0,0,0,0,0,0,0,0,0,0,0,0,0,0,0,0,0,0,0,0,0,0,0,0,0,0,0,0,0,0,0,0,0,0,0,0,0,0,0,0,0,0,0,0,0,3.5614,3.5615,0,3.5695,3.5696,3.5697,3.5662,3.566,3.5658,3.5656,3.5745,3.5749,3.5753,0,0,0,0,0,0,0,0,0,0,0,0,0,3.5433,3.5437,3.5614,3.5615,3.5616,3.5695,3.5696,3.5697,3.5663,3.566,3.5658,3.5656,3.5743,3.5748,3.5753,0,0,0,0,0,0,0,0,0,0,0,0,0,3.5513,3.5438,3.5613,3.5608,3.5608,3.5695,3.5696,3.5697,3.5663,3.566,3.5657,3.5654,3.5742,3.5748,3.5754,3.5852,0,0,3.5773,3.5776,0,0,0,0,0,0,0,0,3.5509,3.552,3.5608,3.5608,3.5609,3.5665,3.5665,3.575,3.5664,3.5642,3.5656,3.5653,3.5721,3.5729,3.5751,3.5856,3.586,3.5774,3.5778,3.578,3.5782,0,0,0,0,0,0,0,3.5503,3.5516,3.5646,3.5609,3.561,3.5603,3.5611,3.5681,3.5698,3.5644,3.5642,3.5652,3.5721,3.5745,3.5753,3.5861,3.5774,3.5779,3.5783,3.5786,3.6053,3.6056,0,0,0,0,0,0,3.5497,3.5512,3.5643,3.5648,3.555,3.5609,3.5618,3.565,3.5697,3.5701,3.5654,3.565,3.5735,3.5745,3.5756,3.5874,3.578,3.5786,3.579,3.6049,3.6053,3.6057,0,0,0,0,0,0,3.5493,3.5509,3.564,3.5579,3.5596,3.5615,3.5652,3.5654,3.5677,3.5704,3.5707,3.5675,3.5734,3.5747,3.5828,3.5876,3.5789,3.5795,3.6045,3.6051,3.6055,3.6111,0,0,0,0,0,0,3.5488,3.5508,3.5544,3.558,3.5599,3.571,3.5655,3.5657,3.5688,3.5683,3.5725,3.5729,3.5732,3.5819,3.5835,3.5884,3.58,3.6041,3.6048,3.6054,3.6105,3.6117,3.6128,0,0,0,0,0,3.5482,3.5557,3.5546,3.5562,3.5644,3.5713,3.5724,3.5724,3.5692,3.5729,3.5746,3.5728,3.5869,3.5828,3.5845,3.5896,3.6038,3.6046,3.6053,3.61,3.6115,3.6128,0,0,0,0,0,0,3.5528,3.5562,3.555,3.5639,3.5673,3.5707,3.5754,3.574,3.5786,3.5779,3.578,3.579,3.5874,3.5894,3.5847,3.5994,3.5949,3.596,3.5978,3.5993,3.6004,3.5998,3.5805,0,0,0,0,0,3.5548,3.5599,3.5627,3.5703,3.5721,3.5735,3.5765,3.5762,3.5798,3.5813,3.5836,3.5873,3.5926,3.596,3.601,3.6108,3.6117,3.6152,3.6163,3.6173,3.6182,3.6236,3.6252,3.6082,3.6082,3.6081,0,0,3.5591,3.5616,3.5649,3.5713,3.5739,3.5794,3.5747,3.5807,3.5847,3.5822,3.59,3.5919,3.596,3.605,3.6091,3.6069,3.6232,3.6182,3.6189,3.6194,3.6246,3.6262,3.6276,3.6087,3.6086,3.6085,0,0,3.5697,3.5721,3.5787,3.5814,3.5853,3.5862,3.5878,3.5914,3.5925,3.6003,3.5985,3.6035,3.6125,3.6156,3.6183,3.6301,3.6286,3.6318,3.6378,3.643,3.6443,3.6455,3.6498,3.6513,3.6327,3.6328,3.6328,0,3.5746,3.5825,3.5823,3.5884,3.5913,3.5892,3.596,3.5987,3.6041,3.6063,3.6037,3.615,3.6177,3.6274,3.6303,3.6325,3.6345,3.6313,3.6441,3.6453,3.6464,3.6505,3.6521,3.6331,3.6331,3.633,3.633,0,3.5883,3.5939,3.5988,3.604,3.6075,3.6139,3.6148,3.6185,3.618,3.6192,3.6272,3.6303,3.6359,3.6382,3.6378,3.6479,3.6464,3.644,3.6394,3.6484,3.6523,3.6538,3.6336,3.6335,3.6334,3.6333,0,0,3.602,3.607,3.6088,3.6111,3.6154,3.6197,3.6262,3.6315,3.6346,3.6385,3.6439,3.6517,3.6495,3.6526,3.6525,3.6571,3.6664,3.6542,3.6543,3.6564,3.6778,3.6795,3.6813,3.6654,3.6657,3.6659,3.6774,0,3.6129,3.6239,3.624,3.6342,3.6394,3.6375,3.6431,3.6464,3.6477,3.6525,3.654,3.6595,3.6561,3.658,3.6624,3.6643,3.6707,3.6635,3.6706,3.6708,3.6696,3.6833,3.6852,3.696,3.6789,3.6792,3.6794,0,3.6271,3.6313,3.642,3.6455,3.6477,3.6527,3.6576,3.6621,3.6659,3.6666,3.67,3.6693,3.676,3.6712,3.6805,3.6756,3.6786,3.68,3.6804,3.6811,3.6756,3.6844,3.6994,3.701,3.6817,3.6815,3.6813,0,3.636,3.6443,3.6518,3.6539,3.6582,3.6618,3.6637,3.6672,3.6704,3.6748,3.6769,3.6821,3.6849,3.689,3.6898,3.6862,3.6992,3.6944,3.7,3.7,3.7028,3.7027,3.7185,3.7047,3.7047,3.7047,3.7046,0,3.6482,3.6548,3.6559,3.6605,3.6679,3.668,3.6754,3.6771,3.6803,3.6853,3.684,3.6888,3.6895,3.6945,3.6952,3.7029,3.7042,3.705,3.7051,3.7051,3.705,3.707,3.7063,3.7051,3.705,3.7049,3.7048,0,3.6593,3.6603,3.6684,3.6717,3.6728,3.6781,3.6811,3.6856,3.6868,3.6932,3.6947,3.6967,3.7025,3.7037,3.7106,3.7111,3.7202,3.7196,3.7189,3.7188,3.7244,3.7238,3.7421,3.7445,3.7291,3.7293,3.7294,0,3.667,3.6721,3.676,3.6792,3.6813,3.6865,3.6898,3.6901,3.6936,3.6983,3.7023,3.708,3.7125,3.722,3.7241,3.7295,3.729,3.735,3.7298,3.7297,3.7291,3.7288,3.7294,3.736,3.7362,3.7363,3.7364,0,3.6806,3.6808,3.6855,3.6903,3.6942,3.6981,3.7018,3.7046,3.7054,3.7094,3.7153,3.7188,3.7259,3.7316,3.737,3.7392,3.7381,3.738,3.7396,3.7397,3.7391,3.7395,3.7216,3.7376,3.7375,3.7374,3.7374,3.7373,3.6903,3.6947,3.6981,3.7034,3.7062,3.7097,3.7141,3.7158,3.7206,3.7263,3.7263,3.7327,3.7365,3.7436,3.7462,3.7513,3.7495,3.7518,3.7523,3.7529,3.7534,3.7383,3.7523,3.7523,3.7523,3.7522,3.7522,0,3.7038,3.7059,3.7107,3.7159,3.7201,3.7184,3.7225,3.7261,3.7318,3.7353,3.7398,3.7467,3.7522,3.7548,3.7603,3.764,3.7636,3.7654,3.7652,3.7657,3.7548,3.7528,3.7657,3.7657,3.7656,3.7656,3.7656,3.7656,3.7113,3.7186,3.7193,3.7282,3.7303,3.7365,3.7389,3.7422,3.745,3.7527,3.7572,3.7588,3.7621,3.7678,3.7729,3.7735,3.7756,3.7778,3.7781,3.7679,3.7665,3.7652,3.7634,3.7782,3.7782,3.7887,3.7888,3.7888]},{"header":{"parameterUnit":"m.s-1","parameterCategory":1,"la1":30.2991,"la2":30.254,"lo1":-89.0895,"lo2":-89.0444,"dy":0.0017,"dx":0.0017,"nx":28,"ny":28,"refTime":"2024-07-08T09:00:00:Z","depth":0,"parameterNumber":3,"parameterNumberName":"V-component_of_WINDS"},"data":[0,0,0,0,0,0,0,0,0,0,0,0,0,0,0,0,0,0,0,0,0,0,0,0,0,0,0,0,0,0,0,0,0,0,0,0,0,0,0,0,0,0,0,0,0,0,0,0,0,0,0,0,0,0,0,0,0,0,6.4616,6.4617,0,6.4688,6.4689,6.469,6.4685,6.4684,6.4683,6.4682,6.4749,6.4752,6.4754,0,0,0,0,0,0,0,0,0,0,0,0,0,6.4469,6.4472,6.4616,6.4617,6.4618,6.4688,6.4689,6.469,6.4686,6.4684,6.4683,6.4682,6.4748,6.4751,6.4754,0,0,0,0,0,0,0,0,0,0,0,0,0,6.4536,6.4473,6.4616,6.4624,6.4626,6.4688,6.4689,6.469,6.4686,6.4684,6.4683,6.4681,6.4747,6.4751,6.4755,6.4811,0,0,6.4767,6.4769,0,0,0,0,0,0,0,0,6.4532,6.4541,6.4622,6.4624,6.4626,6.4676,6.4661,6.473,6.4686,6.4663,6.4682,6.4681,6.4725,6.4731,6.4748,6.4814,6.4817,6.4768,6.477,6.4772,6.4773,0,0,0,0,0,0,0,6.4527,6.4538,6.4644,6.4623,6.4625,6.4623,6.463,6.4674,6.4702,6.4665,6.4665,6.4674,6.4726,6.4744,6.4749,6.4818,6.4768,6.4771,6.4774,6.4775,6.4935,6.4936,0,0,0,0,0,0,6.4522,6.4534,6.4642,6.4646,6.4574,6.4626,6.4635,6.4661,6.4701,6.4706,6.4675,6.4673,6.4738,6.4745,6.4752,6.4821,6.4772,6.4776,6.4778,6.4933,6.4935,6.4937,0,0,0,0,0,0,6.4519,6.4532,6.4639,6.459,6.4604,6.4631,6.466,6.4664,6.4682,6.4709,6.4713,6.4689,6.4737,6.4746,6.4797,6.4823,6.4778,6.4781,6.4931,6.4933,6.4936,6.4959,0,0,0,0,0,0,6.4515,6.453,6.4553,6.4591,6.4607,6.4685,6.4662,6.4666,6.469,6.4688,6.4723,6.4727,6.4736,6.4791,6.4801,6.4828,6.4785,6.4928,6.4932,6.4935,6.4956,6.4962,6.4967,0,0,0,0,0,6.4509,6.4555,6.4554,6.4567,6.4636,6.4686,6.4695,6.4707,6.4692,6.4714,6.4732,6.4726,6.4819,6.4796,6.4808,6.4836,6.4927,6.4931,6.4935,6.4953,6.4961,6.4967,0,0,0,0,0,0,6.4516,6.456,6.456,6.4619,6.465,6.4686,6.4714,6.4714,6.4747,6.4744,6.4755,6.4763,6.4814,6.483,6.4804,6.4893,6.4871,6.4877,6.4881,6.4888,6.4894,6.4889,6.4788,0,0,0,0,0,6.4525,6.4565,6.46,6.4649,6.4664,6.4687,6.4709,6.4716,6.4747,6.4759,6.478,6.4808,6.4844,6.4867,6.4901,6.4958,6.4966,6.4983,6.4989,6.4994,6.4999,6.5031,6.504,6.495,6.495,6.495,0,0,6.4543,6.4572,6.4596,6.4651,6.4675,6.4715,6.4697,6.4739,6.4768,6.4764,6.4815,6.4831,6.4863,6.4918,6.4943,6.4933,6.5026,6.4999,6.5002,6.5005,6.5036,6.5045,6.5052,6.4953,6.4952,6.4952,0,0,6.4596,6.4622,6.4667,6.4692,6.473,6.4745,6.4756,6.4793,6.4805,6.4856,6.4855,6.4888,6.4949,6.4972,6.4992,6.5056,6.5052,6.5067,6.5096,6.5128,6.5135,6.5141,6.5164,6.5173,6.5072,6.5072,6.5072,0,6.4613,6.4674,6.4689,6.4732,6.4756,6.4758,6.4803,6.4826,6.4872,6.4888,6.4876,6.4954,6.4975,6.5036,6.5053,6.5068,6.508,6.5063,6.5133,6.5139,6.5145,6.5168,6.5177,6.5074,6.5073,6.5073,6.5073,0,6.4693,6.4735,6.4766,6.4815,6.4842,6.4886,6.4906,6.4932,6.4937,6.4952,6.5005,6.5031,6.5071,6.5086,6.509,6.5148,6.5141,6.5131,6.5109,6.5155,6.5177,6.5185,6.5076,6.5075,6.5075,6.5074,0,0,6.4751,6.4809,6.482,6.4843,6.4886,6.4918,6.4961,6.5003,6.5026,6.5057,6.5093,6.5146,6.5138,6.5161,6.5167,6.5195,6.5245,6.5182,6.5182,6.5193,6.5311,6.5319,6.5329,6.5243,6.5244,6.5246,6.5309,0,6.4809,6.4889,6.4904,6.4973,6.5012,6.5015,6.5053,6.5082,6.5099,6.5133,6.5149,6.5187,6.5173,6.5187,6.5215,6.5233,6.5269,6.5229,6.5275,6.5277,6.5268,6.534,6.5347,6.5406,6.5317,6.5319,6.532,0,6.4886,6.4924,6.4998,6.5038,6.5055,6.5089,6.5129,6.5163,6.5196,6.5206,6.5232,6.5236,6.528,6.5256,6.5317,6.5289,6.5309,6.5321,6.5323,6.5328,6.5301,6.5347,6.5425,6.5433,6.5333,6.5332,6.5331,0,6.4922,6.4991,6.5045,6.5063,6.5111,6.5135,6.5155,6.5188,6.5212,6.5247,6.5263,6.5302,6.5322,6.5351,6.5365,6.5347,6.5425,6.5402,6.5433,6.5433,6.5449,6.5448,6.5532,6.5462,6.5461,6.5461,6.5461,0,6.4985,6.503,6.5062,6.5094,6.5145,6.5162,6.521,6.523,6.5259,6.5294,6.5298,6.5331,6.5347,6.5382,6.5392,6.5441,6.545,6.5458,6.5461,6.5458,6.5458,6.5472,6.5468,6.5464,6.5463,6.5463,6.5462,0,6.5033,6.5056,6.5115,6.5157,6.5168,6.5203,6.5238,6.5269,6.5286,6.5331,6.5342,6.5368,6.5409,6.5426,6.5476,6.5483,6.5539,6.5538,6.5529,6.553,6.556,6.5557,6.5656,6.567,6.559,6.5591,6.5592,0,6.5072,6.5108,6.5154,6.518,6.5202,6.5242,6.5269,6.5287,6.5314,6.5356,6.5382,6.5424,6.5459,6.5525,6.5546,6.5585,6.5585,6.5617,6.559,6.5587,6.5586,6.5584,6.5587,6.5621,6.5622,6.5623,6.5623,0,6.5139,6.5149,6.5189,6.5233,6.5266,6.53,6.5334,6.5354,6.5377,6.5407,6.5451,6.5478,6.5531,6.5573,6.5613,6.5631,6.5631,6.5632,6.5641,6.5639,6.5633,6.5637,6.5543,6.5629,6.5629,6.5628,6.5628,6.5628,6.5184,6.5216,6.5255,6.5299,6.5327,6.5359,6.5392,6.5414,6.5452,6.5498,6.5506,6.5553,6.5586,6.564,6.5661,6.5697,6.5689,6.5702,6.5705,6.5708,6.5711,6.5627,6.5704,6.5704,6.5704,6.5704,6.5704,0,6.5252,6.5277,6.5318,6.5367,6.5402,6.5402,6.544,6.5468,6.5511,6.5543,6.5578,6.5629,6.567,6.5696,6.5737,6.5761,6.5762,6.5771,6.5769,6.5774,6.5716,6.5704,6.577,6.577,6.577,6.577,6.577,6.577,6.5291,6.5346,6.5361,6.543,6.5455,6.5504,6.5525,6.5555,6.5581,6.5639,6.5674,6.5692,6.5722,6.5765,6.5802,6.5809,6.5824,6.5834,6.584,6.5785,6.5778,6.5771,6.576,6.5837,6.5837,6.5895,6.5895,6.5896]}]]